Theta_e
294 293 292 291 291 291 291 290 290 289 289 290 289 289 289 290 290 289 289 289 289 289 288 288 288 288 287 287 286 284 284 283 283 283 283 282 282 282 281 281 281 280 280 279 279 278 278 278 278 277 277 277 276 276 276 276 276 275 275 275 275 275
294 293 292 291 291 290 290 290 289 289 290 289 289 289 289 288 288 289 288 289 289 289 288 288 288 287 287 286 285 284 284 284 283 282 282 282 281 281 281 281 280 280 279 279 278 278 278 277 277 277 277 276 276 276 275 275 275 275 274 274 275 275
294 293 291 290 289 288 288 288 289 290 289 288 289 289 288 288 289 288 289 289 288 288 287 287 287 286 286 285 284 284 284 283 283 282 282 281 281 281 280 280 280 280 279 279 278 278 277 277 277 277 276 276 275 275 275 275 275 274 274 274 274 274
293 291 289 288 287 287 288 289 288 287 288 289 289 288 288 288 288 288 288 288 288 287 287 287 286 286 285 284 283 283 283 283 282 282 281 281 281 280 280 280 280 279 279 278 278 277 277 277 276 276 276 275 275 275 275 274 274 274 274 274 273 273
292 292 291 290 290 290 287 286 287 288 288 288 288 288 288 288 289 288 288 287 287 287 287 286 285 285 284 284 283 283 283 283 282 282 281 280 280 280 280 280 279 279 278 278 277 277 276 276 276 276 275 275 275 274 274 274 274 274 273 273 273 273
290 289 291 291 290 290 290 289 289 288 288 288 288 288 288 288 288 288 287 287 287 286 286 285 285 284 284 284 284 283 283 283 282 281 281 280 280 279 279 279 279 278 278 277 277 276 276 276 275 275 275 275 275 274 274 273 273 273 273 273 272 272
290 292 292 292 292 291 290 290 289 289 289 289 288 288 289 289 288 287 287 287 286 286 285 285 284 284 283 284 284 283 283 282 281 280 280 280 279 279 278 278 278 277 277 277 276 276 275 275 275 275 275 274 274 274 274 273 273 273 272 272 272 273
291 292 292 292 291 291 291 291 291 290 290 289 289 289 288 288 288 288 287 286 286 285 284 284 284 284 284 284 284 283 283 282 281 280 280 279 278 278 278 278 277 277 277 277 276 276 275 275 275 274 274 274 274 273 273 273 272 272 272 272 272 272
292 293 293 293 292 291 291 291 291 291 290 289 289 289 289 289 288 287 287 286 286 285 284 284 284 284 284 284 284 283 282 281 280 279 279 279 278 277 277 277 277 277 276 276 275 275 275 274 274 274 273 273 272 272 272 272 272 272 272 272 272 272
293 292 291 291 292 292 292 292 292 291 290 290 290 289 289 288 287 287 286 286 285 285 285 285 285 285 284 284 283 282 282 281 280 279 279 278 278 277 277 276 276 276 276 275 275 275 274 274 273 273 273 272 272 272 272 272 271 271 271 271 272 272
298 297 293 291 290 291 292 293 292 291 290 290 290 289 288 288 286 286 286 285 285 285 285 285 285 284 284 283 282 281 281 280 279 279 278 278 277 277 277 276 276 275 274 274 274 273 273 273 273 273 272 272 271 271 272 271 271 271 271 271 272 272
293 293 292 293 294 294 294 293 292 292 291 291 290 288 288 287 286 286 285 285 285 285 285 284 284 283 282 282 281 281 280 279 278 278 277 277 277 276 276 275 275 274 274 273 273 273 273 273 273 275 277 276 272 271 271 271 271 271 271 271 271 272
293 294 295 296 296 296 296 296 294 292 290 289 288 288 287 286 286 285 285 285 285 285 284 283 283 282 281 281 281 280 279 278 278 277 277 276 276 275 274 274 274 274 274 273 273 272 272 273 273 277 279 279 278 272 271 271 271 271 271 271 271 272
290 291 293 295 295 295 295 294 293 290 289 288 287 287 286 285 285 285 285 285 284 284 283 283 282 281 281 280 280 279 278 278 277 276 276 275 274 274 274 274 274 274 273 273 272 272 272 272 276 279 280 280 279 276 272 271 272 272 272 272 272 273
289 290 291 292 294 294 293 292 291 290 291 289 288 284 283 284 284 284 284 284 283 283 282 282 281 280 279 279 279 278 277 276 276 275 274 274 274 273 273 274 273 273 273 272 272 271 271 271 278 280 281 281 280 279 275 272 272 272 272 273 274 274
288 289 289 290 291 291 291 290 289 290 290 288 285 283 284 283 284 284 284 283 282 282 281 281 280 279 279 278 277 276 276 275 275 275 274 274 273 273 273 273 272 272 271 272 271 271 271 271 277 281 281 282 282 281 277 272 273 273 274 275 275 275
287 288 289 290 290 291 290 290 290 289 289 288 285 283 283 283 283 283 283 282 282 281 280 280 279 279 278 277 276 275 275 274 274 274 274 274 273 273 272 272 271 271 271 271 271 271 271 271 277 281 281 282 282 282 279 274 275 275 275 275 275 275
285 286 286 288 289 289 289 289 289 287 288 284 284 282 282 282 282 282 281 281 281 281 281 280 279 278 276 276 275 275 275 274 274 274 273 273 273 272 272 271 271 271 270 271 270 270 270 271 278 280 282 282 282 282 277 274 274 274 275 275 275 275
285 285 285 286 287 287 287 286 286 286 286 283 280 280 280 281 281 282 281 281 281 281 280 280 279 277 276 275 275 274 275 274 274 274 273 272 272 271 271 271 271 270 270 270 270 269 269 269 276 281 281 282 282 280 274 274 274 275 274 274 274 273
286 286 286 286 287 288 285 283 284 284 285 283 280 280 279 278 281 281 281 281 281 280 279 280 279 278 276 275 275 275 275 274 274 273 272 272 271 271 271 270 269 269 270 270 269 269 269 269 275 281 281 281 281 279 274 274 274 273 273 272 273 272
285 285 286 287 287 287 284 283 283 283 283 281 279 279 279 280 280 279 279 280 279 278 278 278 278 278 276 275 275 275 275 274 273 273 272 272 271 271 270 269 269 268 268 269 269 272 270 268 274 280 280 280 280 278 274 274 272 272 272 271 270 272
286 286 286 286 287 287 283 282 283 283 281 280 278 278 279 279 279 278 278 277 276 276 277 278 278 277 276 275 275 275 274 273 272 271 271 271 270 269 269 269 268 268 267 268 268 270 269 268 269 275 279 280 280 280 274 273 272 271 271 271 270 269
286 286 286 286 287 285 282 281 282 284 281 278 278 280 279 278 278 277 276 274 274 275 277 278 278 277 276 276 275 274 273 272 271 270 270 269 268 268 268 267 267 267 267 267 268 268 268 268 268 272 279 279 280 280 277 272 272 272 271 270 270 270
286 286 286 287 287 285 283 281 283 283 281 279 281 283 278 277 276 275 274 274 275 276 276 276 277 276 275 274 273 272 271 271 270 269 269 268 268 267 267 267 267 266 266 266 267 268 268 270 271 270 277 279 279 280 279 273 272 273 271 270 270 271
284 285 286 287 287 287 285 283 284 284 282 280 284 281 277 275 275 275 275 275 275 275 275 275 275 274 273 272 272 272 271 270 269 269 268 268 267 267 266 266 266 265 265 265 266 267 268 269 271 273 274 278 279 279 279 277 275 276 273 271 271 272
284 284 285 286 287 287 286 285 284 285 284 284 285 279 276 276 276 276 275 274 274 274 273 273 273 273 272 272 271 271 270 269 269 269 268 268 267 267 266 266 266 266 265 265 265 266 267 269 270 273 275 276 279 279 279 279 277 277 274 274 272 273
283 284 285 285 286 286 286 285 284 284 284 286 284 282 279 276 275 275 275 274 273 273 272 272 272 272 271 271 271 270 269 269 268 268 268 268 268 268 267 266 266 265 265 265 265 266 267 268 269 271 274 276 277 278 278 278 278 277 277 274 273 273
283 283 283 284 285 285 285 285 284 284 286 286 284 281 279 277 276 275 275 274 273 273 272 271 271 271 271 271 271 271 270 269 268 268 268 267 268 268 267 266 266 266 266 266 266 267 267 268 268 270 272 274 275 276 277 277 277 277 277 275 273 274
281 281 281 281 283 284 285 285 286 286 286 285 286 282 279 276 276 276 275 274 273 272 271 271 271 270 270 270 271 271 270 270 269 269 268 268 268 268 267 267 266 266 266 266 267 267 267 267 267 268 269 271 271 272 274 275 275 276 275 272 270 271
279 279 280 280 282 283 284 284 285 286 286 286 285 282 278 276 276 276 276 274 273 271 271 271 269 269 270 270 270 270 269 269 269 269 268 268 268 268 267 266 266 266 267 267 267 267 267 266 266 267 267 268 269 269 270 271 271 271 270 269 269 269
278 278 279 279 280 281 282 283 285 286 286 286 285 281 278 277 276 275 275 274 272 271 270 270 270 270 270 270 269 270 270 269 269 269 270 270 270 270 269 267 267 267 268 268 268 266 266 266 266 266 271 269 271 269 269 269 270 270 270 270 271 266
276 276 277 277 278 279 280 280 281 283 284 285 284 280 278 277 276 274 274 272 271 270 269 269 270 269 269 269 269 269 269 270 272 271 269 269 272 274 274 273 269 269 270 269 269 269 267 266 267 272 273 273 274 274 273 273 273 273 271 272 273 267
274 274 274 275 276 276 277 277 278 279 280 281 282 280 278 277 276 275 273 271 270 270 269 269 269 268 268 268 267 267 266 266 269 273 273 272 273 274 275 275 274 274 274 271 268 270 272 271 273 274 275 275 276 275 275 275 275 275 274 273 266 260
271 272 272 273 273 273 273 274 274 275 277 279 280 280 278 277 276 276 275 273 271 270 268 268 268 267 267 267 266 266 265 265 265 267 272 274 273 274 275 276 275 275 275 274 272 270 270 273 275 276 276 276 276 276 276 276 275 275 274 272 270 257
271 270 271 271 271 271 271 271 272 273 274 275 276 277 277 276 276 276 276 274 271 269 267 267 266 266 266 266 265 265 265 265 265 265 266 270 274 275 275 276 276 276 276 275 274 274 273 274 276 277 277 277 276 276 275 275 275 274 273 270 260 256
269 269 269 269 269 269 270 270 270 271 272 273 274 274 275 276 276 276 276 276 272 269 267 266 266 266 265 266 265 265 265 266 266 266 267 267 268 271 274 276 276 276 276 275 275 275 276 277 277 277 277 276 276 275 275 274 272 273 271 266 257 256
267 267 267 268 268 268 268 268 268 269 270 271 272 274 275 276 276 276 273 271 270 270 268 267 267 266 266 266 265 265 266 266 267 267 267 267 268 269 269 270 272 275 276 273 274 276 277 277 277 277 276 276 275 275 275 273 266 262 258 257 254 255
265 265 266 266 266 266 265 266 267 269 270 272 274 275 276 276 276 276 276 275 271 270 269 268 267 266 266 266 266 266 266 267 267 267 268 269 269 269 269 269 270 271 274 276 275 277 277 277 277 276 275 275 275 274 272 263 260 258 256 254 253 253
Wind_Speed
10 11 13 10 10 11 12 12 11 9 11 12 12 16 19 19 15 13 12 12 12 12 15 16 15 13 13 11 10 9 12 13 12 12 11 8 10 10 10 11 11 11 11 11 10 10 11 9 10 9 9 9 8 7 7 6 7 7 6 5 6 5
11 12 12 13 14 12 10 9 9 12 14 12 13 13 9 8 12 15 16 16 15 14 12 12 13 13 12 12 12 12 13 13 12 11 10 13 9 11 12 12 13 13 13 11 11 11 10 10 9 9 9 8 8 8 7 7 7 7 6 5 5 4
10 9 8 6 4 5 6 9 13 14 9 11 13 15 15 15 16 14 15 14 15 14 15 15 14 14 12 11 12 13 12 11 12 12 11 8 12 11 12 13 13 13 13 13 12 13 12 12 11 9 9 9 8 7 7 7 7 7 5 5 5 4
8 5 3 3 5 6 8 10 8 8 13 16 14 11 11 14 14 15 17 14 14 15 15 14 11 11 11 12 11 12 12 12 12 12 10 13 12 12 13 13 12 12 13 13 12 12 12 11 11 10 9 9 9 8 6 8 8 7 6 6 6 6
5 6 7 8 10 9 7 5 9 12 13 12 11 14 17 16 17 16 13 13 13 16 15 12 11 12 13 14 13 14 14 13 12 11 14 13 12 12 12 13 12 13 13 12 12 12 12 12 11 10 10 10 10 10 8 8 8 9 8 8 7 6
5 5 7 9 9 9 12 12 12 12 11 13 13 15 18 15 14 12 11 12 14 14 12 13 13 13 14 15 15 16 14 12 11 11 13 12 11 13 11 11 12 12 13 13 12 12 12 12 11 10 10 10 11 10 10 9 9 8 8 7 7 6
5 7 8 9 9 8 8 9 11 12 14 12 13 16 17 14 11 11 12 13 14 13 14 14 14 15 16 17 14 16 14 13 12 11 13 12 12 12 11 11 11 12 13 13 14 13 12 12 11 11 10 9 9 9 9 9 8 8 7 7 6 6
6 7 10 10 8 9 9 11 12 13 12 14 14 14 11 12 11 12 12 12 13 13 15 15 14 17 18 18 15 15 14 13 13 13 11 13 14 12 12 13 12 13 14 13 12 12 12 11 11 11 11 10 9 9 8 8 8 7 7 7 6 6
11 13 9 8 7 7 9 11 12 12 12 13 12 13 13 12 11 12 13 13 14 14 15 15 17 17 17 16 15 13 12 13 13 13 14 13 13 14 13 13 13 11 12 12 11 12 12 11 11 11 10 11 10 10 9 8 8 7 7 7 7 7
10 9 9 8 9 11 11 12 13 13 12 14 14 13 12 10 11 13 13 13 14 15 16 17 17 16 15 13 12 12 13 13 12 13 12 12 14 14 15 15 14 11 11 11 11 10 10 11 11 10 10 9 9 9 9 9 8 8 7 6 6 6
18 19 12 8 8 10 13 12 11 10 10 12 11 10 13 12 11 12 13 13 15 16 16 15 13 12 12 12 12 13 13 13 13 12 12 12 12 11 12 12 12 12 11 10 10 11 10 11 11 10 11 11 10 10 10 10 9 8 8 6 7 7
13 12 11 10 13 14 14 11 11 12 13 14 12 11 11 10 13 13 14 15 17 15 13 13 11 11 11 12 13 14 13 13 12 13 13 13 13 11 11 11 11 12 13 13 11 10 10 10 8 11 18 14 10 10 8 8 8 8 8 8 8 8
13 13 14 15 17 18 17 16 14 11 11 11 8 11 11 11 13 12 13 16 15 12 10 10 11 11 12 13 12 10 12 13 12 12 12 12 12 12 12 12 13 12 11 13 13 12 10 9 8 18 20 20 19 11 10 9 9 9 9 9 8 8
12 13 15 17 18 17 15 15 13 9 11 10 10 12 8 10 10 12 13 14 10 10 12 12 11 12 12 11 12 12 12 11 12 12 12 12 12 11 10 12 13 12 11 10 11 11 11 10 14 22 22 22 22 18 12 10 9 10 9 9 9 8
13 14 15 15 15 14 14 12 10 11 11 10 10 3 7 10 12 13 13 12 11 12 12 11 12 12 12 12 12 11 11 12 12 12 12 13 11 10 12 13 12 12 11 11 12 12 11 10 19 23 25 24 24 24 17 9 10 9 9 10 10 9
13 13 12 12 14 15 16 12 10 13 11 7 2 8 9 11 12 12 12 9 10 11 11 11 11 12 12 11 11 11 12 13 14 12 10 10 10 12 11 11 12 12 12 12 13 12 11 12 18 24 23 22 23 23 17 8 9 9 10 10 9 8
14 15 16 15 15 14 12 13 11 10 12 9 6 5 7 8 10 10 9 10 10 9 10 11 12 12 11 11 12 12 12 13 11 12 12 12 14 14 14 14 13 12 12 12 11 11 10 9 17 20 21 20 21 22 16 7 7 7 7 7 8 8
13 13 14 12 13 13 12 12 11 9 12 6 5 4 5 6 7 8 6 9 11 12 12 13 13 12 11 12 12 13 13 13 14 15 12 11 9 8 8 8 10 12 12 11 10 9 9 8 18 19 20 20 19 20 9 7 6 6 5 7 8 6
11 13 11 11 11 12 12 12 11 11 10 7 5 2 3 4 7 8 9 10 10 10 11 12 13 13 13 13 14 15 14 14 13 12 10 12 11 12 12 12 12 10 11 12 11 10 8 7 14 20 19 19 20 15 5 6 6 5 6 7 7 5
12 14 13 13 13 13 11 10 11 11 10 7 4 2 3 3 7 5 5 7 3 3 4 7 11 13 14 14 16 16 14 12 9 12 12 14 13 13 12 10 9 9 10 12 12 11 10 8 13 20 19 19 20 13 7 6 6 6 5 4 4 3
12 12 13 14 16 16 13 11 11 10 10 8 5 3 4 6 5 3 3 2 1 3 4 5 5 7 10 13 13 12 13 14 13 10 9 9 10 10 9 9 9 8 8 8 9 13 11 9 11 20 19 20 20 13 6 7 6 6 6 5 4 4
13 15 15 15 16 15 13 11 11 10 9 7 4 5 6 5 4 3 2 2 4 5 5 5 7 7 7 7 5 5 6 5 7 9 10 8 8 9 9 9 9 11 9 8 9 10 10 10 8 12 21 20 20 18 8 6 7 7 7 5 5 3
10 11 11 11 12 12 11 10 10 10 7 5 6 8 6 4 2 2 3 3 4 4 6 5 7 8 7 7 8 7 7 6 8 8 8 9 7 8 9 10 9 9 8 8 8 9 9 10 11 12 21 20 21 21 15 8 8 7 6 6 5 4
13 14 13 10 11 10 10 9 10 10 8 5 8 10 4 2 1 0 1 3 4 5 6 6 5 6 7 7 9 9 9 7 8 8 9 8 8 10 11 10 9 9 8 7 8 8 9 11 16 10 19 21 21 20 19 9 8 7 7 6 5 6
13 14 15 13 12 10 9 9 10 10 8 6 10 6 2 1 1 1 1 2 3 4 5 5 7 7 6 7 8 10 10 8 9 10 10 10 10 10 11 11 10 9 9 7 7 6 5 7 10 16 11 20 21 21 20 17 12 15 9 7 7 6
14 14 12 12 12 10 9 9 12 11 11 12 9 4 1 1 2 2 3 3 3 3 3 4 6 7 7 8 8 8 9 9 9 9 9 10 11 10 11 9 10 10 10 11 9 6 6 7 8 14 18 16 22 20 21 19 18 17 9 7 5 4
17 17 17 12 10 11 10 8 10 14 15 13 6 5 4 3 2 3 3 4 4 5 5 5 6 7 8 9 11 12 10 11 11 11 9 10 10 10 11 10 10 11 10 10 11 9 8 7 6 7 15 20 19 20 20 19 19 17 16 7 4 5
14 15 17 17 14 12 10 9 8 13 15 13 10 6 3 4 5 6 7 5 6 7 6 8 7 8 9 11 10 12 12 14 14 13 12 11 11 11 11 11 12 12 13 9 8 9 9 8 9 9 10 13 14 15 19 19 18 16 15 10 5 7
13 16 17 19 17 12 12 13 11 11 12 13 12 8 5 5 7 7 7 8 8 8 9 10 8 8 8 10 10 9 10 10 11 12 13 14 13 13 12 11 7 10 10 8 9 8 7 7 6 8 9 9 9 8 10 12 11 15 12 5 5 4
15 16 17 17 16 14 13 14 13 12 12 12 11 9 6 7 8 9 9 10 8 8 10 10 11 12 10 11 12 12 11 11 12 13 15 16 17 16 15 11 10 11 10 10 9 9 10 9 8 11 11 11 10 9 7 6 6 6 5 6 4 4
15 15 16 17 15 14 14 14 14 13 13 12 11 7 8 10 10 10 9 7 7 8 8 9 9 11 11 11 11 11 11 12 14 15 13 11 10 13 15 16 15 16 16 16 16 17 12 7 9 12 13 12 15 13 11 9 8 7 6 8 10 7
14 16 17 16 15 14 14 15 14 14 14 13 11 7 9 11 10 9 10 8 8 8 8 9 9 9 9 8 9 9 8 6 10 8 8 8 11 16 14 13 14 15 14 14 13 15 17 17 15 19 23 21 21 20 18 15 15 14 11 10 13 9
14 15 17 17 15 14 14 14 15 15 15 14 14 10 10 10 10 9 9 8 9 11 11 10 9 8 8 8 7 7 7 5 6 11 12 8 12 15 17 16 16 17 18 14 13 11 8 8 17 24 23 23 22 21 20 19 17 17 15 16 11 5
14 14 17 17 16 16 15 15 17 17 16 15 14 12 11 11 11 12 11 10 10 10 9 9 9 8 9 8 8 8 7 7 7 5 14 16 13 17 17 17 18 19 20 17 14 12 7 16 24 25 24 23 22 21 20 18 17 17 15 14 11 7
13 13 14 15 17 16 16 15 18 18 16 14 13 14 14 14 13 14 14 10 9 8 9 9 9 10 10 11 11 10 10 10 10 10 8 11 15 17 16 18 18 20 20 19 19 19 17 21 24 27 25 23 22 21 19 18 18 16 16 15 7 6
14 15 17 17 18 17 18 19 19 21 18 13 13 15 17 16 16 15 14 11 10 10 9 10 10 10 11 11 10 11 11 11 11 10 10 9 9 11 12 14 18 20 21 21 21 21 21 24 25 24 23 23 21 20 20 18 13 16 13 9 7 6
18 18 21 21 20 18 15 19 21 21 15 12 15 17 17 17 16 14 15 18 12 9 11 10 10 11 10 10 11 12 12 12 11 10 11 12 13 12 11 9 11 17 21 17 17 21 24 23 24 23 22 22 21 21 21 19 11 8 6 6 4 5
17 18 20 19 17 16 18 20 21 19 14 13 15 16 16 15 14 14 12 11 12 11 9 9 10 10 11 12 12 11 11 10 10 11 11 11 11 10 10 9 9 9 16 25 20 23 22 22 22 21 21 20 20 21 20 10 7 7 5 5 4 4
Wind_Direction
215 208 207 206 206 205 204 201 192 194 202 205 202 201 203 202 200 202 204 203 209 210 209 208 208 208 208 205 196 183 191 194 194 193 193 174 180 177 175 178 180 181 182 180 178 178 181 178 180 176 175 176 174 176 173 171 170 171 176 174 169 174
219 207 202 199 202 203 203 196 192 198 203 199 207 214 210 195 200 201 205 206 206 208 207 208 207 206 203 199 191 192 197 196 189 189 182 189 172 183 177 179 182 182 181 182 179 179 178 179 178 177 176 176 179 173 172 174 170 174 179 175 172 169
228 221 214 214 206 188 182 190 200 205 192 202 208 208 205 205 209 203 211 203 208 204 204 206 202 203 199 195 195 198 198 192 188 189 188 158 185 180 180 183 185 182 182 179 180 180 180 178 177 178 175 178 177 174 170 168 175 177 180 168 178 174
256 251 197 185 191 215 203 203 199 196 200 209 207 205 212 211 212 207 211 203 205 203 207 204 198 194 189 193 194 200 197 194 191 186 171 185 184 178 184 184 182 182 180 180 181 181 179 179 177 176 173 175 173 174 173 175 176 179 179 174 186 179
238 223 228 210 203 203 207 201 203 210 213 208 207 207 215 210 213 211 208 203 200 204 203 197 192 189 192 193 196 200 197 196 191 180 184 185 182 181 182 183 179 180 179 181 181 179 179 178 176 176 176 178 177 176 178 178 177 181 181 185 188 180
290 262 218 218 216 209 206 206 209 210 211 210 206 209 218 212 214 209 207 208 208 202 192 194 193 190 194 198 200 202 199 192 188 183 186 183 176 180 183 178 179 176 179 180 179 180 177 176 176 175 180 178 178 178 178 176 180 183 185 184 180 179
253 237 246 237 223 218 215 216 218 215 217 211 210 218 218 212 208 200 205 206 207 199 196 196 190 193 196 201 200 202 193 189 184 183 185 177 180 181 172 177 176 178 179 183 181 179 178 178 174 174 177 179 178 179 175 178 178 181 181 180 179 179
242 241 235 232 232 223 218 219 221 223 222 218 214 219 220 216 202 204 202 204 202 201 200 198 194 199 200 201 201 199 192 186 183 182 184 179 178 175 178 175 179 182 185 183 180 178 177 173 173 176 176 175 174 175 177 173 174 175 175 179 181 183
239 239 237 229 232 228 226 221 225 223 221 224 217 216 215 212 200 202 202 202 203 203 203 198 200 200 201 200 198 189 184 186 185 180 183 181 177 174 177 181 179 184 180 180 174 176 172 170 170 172 174 175 176 174 171 169 172 176 177 185 185 188
245 242 243 238 232 227 228 227 225 221 216 222 220 214 213 203 197 202 202 200 203 205 204 204 204 200 200 195 189 185 187 183 181 185 181 173 178 181 180 178 179 176 176 175 174 172 167 168 172 174 174 171 170 169 171 172 175 177 182 180 188 188
286 289 279 247 239 240 239 239 237 231 230 229 222 208 210 203 196 202 200 201 206 209 206 203 201 198 191 187 184 183 184 183 182 179 176 179 181 181 180 176 172 167 171 171 171 168 170 172 176 174 171 169 172 173 174 175 176 177 176 178 188 198
266 259 257 261 262 263 263 254 247 239 231 230 221 209 213 183 202 200 200 203 209 209 201 198 194 191 186 182 185 187 181 178 177 176 177 181 181 175 172 170 172 173 174 171 171 170 172 178 175 176 176 173 169 171 171 169 173 175 180 183 190 198
260 264 269 270 269 267 270 268 258 248 240 238 220 215 210 191 204 202 202 210 211 203 192 188 192 182 185 188 184 178 176 177 175 178 179 178 176 173 170 169 171 178 177 175 173 173 177 177 174 177 181 179 176 169 168 172 178 180 182 186 187 196
299 284 273 268 268 269 267 267 260 244 237 230 219 219 194 194 201 202 208 213 201 191 188 190 183 182 186 179 183 179 178 172 174 177 177 174 173 172 165 173 179 175 175 174 174 176 176 175 177 182 183 183 181 177 176 176 177 179 183 186 192 198
325 308 299 294 291 291 290 291 292 272 258 239 235 171 176 197 200 204 209 206 193 194 189 184 182 183 180 184 178 173 170 174 174 175 174 179 173 159 172 178 170 177 174 174 173 177 178 178 183 185 185 186 186 183 176 176 175 177 181 187 192 196
337 330 314 302 299 297 294 291 278 276 277 278 196 177 200 195 205 206 208 197 195 191 187 182 179 183 183 173 170 168 173 175 182 177 171 161 161 172 173 173 176 173 177 178 179 179 181 182 188 187 188 189 188 184 175 176 177 182 185 187 191 194
334 336 334 336 328 319 317 310 299 293 290 284 257 217 199 206 204 206 201 193 193 183 185 183 182 182 174 170 167 169 176 179 173 171 173 172 174 175 178 176 176 179 177 179 178 178 180 184 189 190 191 192 190 187 175 170 175 180 184 188 197 204
328 325 320 318 330 330 329 314 309 307 290 306 252 237 215 211 211 213 197 199 195 194 189 181 181 177 170 167 169 174 178 179 179 176 172 169 172 172 167 175 176 175 178 177 172 170 176 178 191 192 191 189 187 188 172 163 173 179 182 193 196 198
322 322 317 319 330 334 332 322 319 312 301 295 284 235 224 205 222 219 209 212 204 199 190 185 178 174 171 172 173 180 181 179 180 176 167 169 173 172 178 179 179 176 172 172 172 170 170 170 190 189 187 187 187 183 152 167 165 177 175 186 195 201
328 329 331 327 333 339 333 328 328 325 320 326 343 322 280 247 243 237 227 230 230 233 221 196 181 177 176 176 183 184 184 178 174 176 173 174 171 178 181 171 168 173 174 173 174 171 165 168 187 184 185 186 189 178 163 168 164 170 180 181 197 201
330 323 327 337 341 339 336 334 338 339 332 339 344 335 285 255 266 297 277 280 185 182 181 192 201 195 185 187 188 180 177 179 179 168 165 172 169 171 162 164 166 166 170 173 167 165 163 166 185 184 183 186 189 181 154 168 167 173 187 181 196 206
333 336 339 339 334 333 336 336 339 343 345 338 347 302 277 295 299 247 200 169 156 161 170 179 184 184 186 188 171 173 176 156 152 165 169 165 163 161 162 164 167 168 169 165 162 171 163 167 182 189 185 188 190 184 165 167 171 186 186 180 181 194
330 325 322 323 324 329 331 336 337 334 341 338 324 293 282 274 251 197 184 152 150 163 172 172 183 182 177 168 164 153 148 159 161 155 163 160 155 150 158 165 167 165 166 166 165 165 165 170 173 189 186 187 188 187 172 175 180 179 175 177 184 191
325 324 325 324 325 324 327 334 331 320 324 339 312 303 309 307 277 173 139 166 170 172 172 173 168 166 161 151 149 155 160 154 151 160 160 159 161 164 166 164 165 166 165 165 166 170 167 176 179 176 187 186 187 189 181 166 181 172 164 182 192 209
324 326 324 324 325 324 322 327 320 314 311 304 284 306 341 246 157 152 164 171 177 175 168 164 161 155 151 157 160 160 161 155 157 162 162 161 164 168 169 169 166 163 166 165 173 172 159 169 179 181 184 186 186 188 189 178 178 190 179 193 202 191
322 320 319 322 322 320 319 321 312 308 307 294 289 301 221 182 201 158 162 167 169 158 160 162 159 151 152 155 157 160 157 164 166 165 172 168 168 171 173 178 171 170 172 173 175 172 171 180 174 185 184 185 185 187 190 188 184 192 189 187 172 189
321 320 318 321 322 316 310 306 303 304 302 295 292 264 235 211 190 203 205 192 170 172 172 162 170 166 166 168 165 167 170 170 170 172 179 174 180 181 181 181 175 178 176 174 179 175 173 177 175 177 185 185 185 185 187 190 190 192 196 188 155 152
317 316 315 315 318 317 310 299 291 297 296 298 296 274 240 196 195 210 211 192 185 183 169 175 181 181 179 177 184 186 182 176 178 179 178 182 186 185 183 181 182 182 181 177 159 163 165 163 172 180 180 184 182 185 186 187 192 194 194 177 175 193
316 314 314 311 314 318 313 310 304 290 290 293 293 286 248 230 223 223 208 201 193 182 176 183 185 187 190 190 190 191 189 189 187 183 182 186 186 189 190 185 162 171 177 160 166 147 145 147 160 171 177 172 176 179 185 185 190 186 183 163 116 129
313 310 309 307 309 315 313 308 306 302 296 289 288 279 257 245 234 229 224 211 196 189 187 192 187 186 193 198 195 193 192 193 193 191 191 189 190 187 192 180 173 177 167 153 155 160 164 168 169 181 178 178 171 171 168 168 159 159 138 145 152 143
306 304 303 302 305 308 307 306 307 309 306 299 292 272 249 250 244 239 238 219 199 203 195 197 193 198 196 199 204 209 205 198 198 205 210 210 201 195 187 183 188 188 185 175 175 158 163 159 182 189 183 177 176 168 165 168 171 162 160 169 174 131
303 305 304 300 303 307 308 309 309 309 310 308 300 272 250 250 248 239 238 217 210 208 194 201 201 200 203 203 206 210 218 228 225 228 219 209 204 208 209 196 192 187 174 179 185 179 176 184 186 178 176 173 173 174 173 170 166 165 159 187 153 130
304 301 299 299 303 304 303 302 302 301 300 300 300 285 259 255 252 246 241 220 217 209 200 201 198 194 196 196 199 201 203 206 221 228 224 217 205 203 208 202 197 190 187 179 168 178 179 166 169 170 169 171 173 175 174 170 167 162 165 145 114 76
302 301 301 302 302 299 301 299 295 292 291 293 297 293 273 257 249 250 243 228 227 210 200 197 192 186 186 190 185 188 188 190 196 214 218 214 205 202 203 197 187 187 183 181 168 158 152 161 163 167 170 171 174 175 170 163 159 158 154 146 129 111
303 300 297 295 295 297 298 295 290 288 287 289 297 295 278 262 250 250 251 241 223 212 199 194 192 190 188 188 184 188 185 188 186 188 185 204 209 205 204 200 191 183 178 169 166 165 161 161 165 167 169 173 173 168 161 156 153 156 143 122 97 128
299 296 292 290 290 292 294 292 289 287 288 300 298 287 277 268 259 249 250 242 219 205 201 201 197 192 194 191 188 187 187 191 188 184 179 172 175 196 206 202 192 183 176 169 165 164 162 161 163 167 168 166 164 160 155 149 148 141 136 133 140 135
297 293 289 288 290 291 289 285 285 283 290 297 289 280 273 265 259 257 250 244 226 205 208 203 197 197 192 188 188 187 188 189 186 179 180 178 179 180 176 169 171 173 168 167 164 161 158 158 162 163 163 164 161 155 150 138 125 110 80 68 89 128
287 284 285 287 288 286 285 279 276 279 292 283 275 279 283 280 269 259 253 245 223 213 210 201 200 196 192 191 191 187 185 180 177 180 181 179 178 172 161 156 156 155 164 159 156 157 158 159 159 161 161 161 157 154 142 129 143 130 132 128 137 142